LTBQ

Details ICAO LTBQ
Name TOPEL
Region Turkey
Timezone Europe/Istanbul (UTC+3.0)
Plans Departing 16
Arriving 16
Stats Elevation 182 ft / 55 m (AMSL)
Location 40.735032° 30.083263°
Runways 1
Magnetic Variation 5.578° E
Sunrise 2018-05-25 02:36:08 UTC / 2018-05-25 05:36:08 Local
Sunset 2018-05-25 17:19:55 UTC / 2018-05-25 20:19:55 Local
Advertisement - Login to hide

Runways

ID Width Length Bearing (true) Bearing (mag) Surface Threshold Offset Overrun Length
09 98 ft / 30 m 9,780 ft / 2,981 m 96.33° 90.75° Asphalt 0 ft / 0 m 0 ft / 0 m
27 98 ft / 30 m 9,780 ft / 2,981 m 276.35° 270.77° Asphalt 0 ft / 0 m 0 ft / 0 m

Map

Weather


0- 5 10 15 20 25 30 35+ Temperature / ° C

Clouds and Precipitation
Forecast for 2018-05-24 18:00 UTC. Updated 5 hours ago

Ground ~20,000 ft ~40,000 ft Winds

METAR

LTBQ 242139Z 00000KT 9999 VCTS SCT024CB BKN032 BKN100 17/17 Q1011 NOSIG RMK RWY09 00000KT

TAF

Not found

Frequencies

Ground 121.95 MHz GND
Approach 120.50 MHz YESILKOY APP
Approach 122.20 MHz YESILKOY APP
Tower 122.10 MHz TWR
Approach 121.10 MHz YESILKOY APP
Warning: Do not use this data for real-world aviation or navigation. No guarantee of current accuracy is given.